Location: Sewell
(39.7660°N, 75.1450°W)
Time: 19:30:25
(UTC-04:00)

ISS - Visible Passes

Search period start: 29 August 2016 00:00
Search period end: 08 September 2016 00:00
Orbit: 402 x 406 km, 51.6° (Epoch: 29 August)

Date Brightness Start Highest point End Pass type
(mag) Time Alt. Az. Time Alt. Az. Time Alt. Az.
02 Sep -0.5 05:43:32 10° SSE 05:45:08 13° SE 05:46:44 10° E visible
04 Sep -1.8 05:33:29 10° SSW 05:36:25 31° SE 05:39:23 10° ENE visible
05 Sep -1.0 04:43:22 15° SSE 04:44:09 16° SE 04:46:16 10° E visible
06 Sep -3.3 05:26:00 24° SW 05:27:50 82° SE 05:31:07 10° NE visible
07 Sep -2.1 04:35:53 37° ESE 04:35:53 37° ESE 04:38:32 10° ENE visible
